Worcester, MA

7:56 PM EST on February 23, 2018 (GMT -0500)
Worcester Regional

Weather History for KORH - December, 2013

Change the Weather History Date:

Friday, December 20, 2013

  Actual Average Record
Temperature  
Mean Temperature 41 °F 28 °F  
Max Temperature 49 °F 35 °F 59 °F (1957)
Min Temperature 32 °F 21 °F -15 °F (1942)
Degree Days  
Heating Degree Days 24 37  
Month to date heating degree days 765 675  
Since 1 July heating degree days 2177 2077  
Cooling Degree Days 0 0  
Month to date cooling degree days 0 0  
Year to date cooling degree days 572 471  
Moisture  
Dew Point 28 °F    
Average Humidity 59    
Maximum Humidity 72    
Minimum Humidity 46    
Precipitation  
Precipitation 0.00 in 0.12 in 2.14 in (1936)
Month to date precipitation 2.56 2.56  
Year to date precipitation 43.86 46.81  
Sea Level Pressure  
Sea Level Pressure 30.01 in    
Wind  
Wind Speed 11 mph (SW)    
Max Wind Speed 18 mph    
Max Gust Speed 25 mph    
Visibility 10 miles    
Events      
T = Trace of Precipitation, MM = Missing Value Source: NWS Daily Summary

Daily Weather History Graph

Daily Weather History Graph

Search for Another Location

Airport or City:

Trip Planner

Search our weather history database for the weather conditions in past years. The results will help you decide how hot, cold, wet, or windy it might be!

Date:

Astronomy

Dec. 20, 2013 Rise Set
Actual Time 7:12 AM EST 4:17 PM EST
Civil Twilight 6:40 AM EST 4:49 PM EST
Nautical Twilight 6:05 AM EST 5:25 PM EST
Astronomical Twilight 5:31 AM EST 5:59 PM EST
Moon 7:39 PM EST (12/20) 9:02 AM EST (12/20)
Length of Visible Light 10h 09m
Length of Day
9h 05m
Waning Gibbous, 90% of the Moon is Illuminated
Dec 20
Waning Gibbous
Dec 25
Last Quarter
Jan 1
New
Jan 7
First Quarter
Jan 15
Full

Hourly Weather History & Observations

Time (EST) Temp. Windchill Dew Point Humidity Pressure Visibility Wind Dir Wind Speed Gust Speed Precip Events Conditions
12:54 AM 35.1 °F 28.6 °F 24.1 °F 64% 30.10 in 10.0 mi WSW 8.1 mph - N/A   Clear
1:54 AM 34.0 °F 28.8 °F 24.1 °F 67% 30.10 in 10.0 mi WSW 5.8 mph - N/A   Clear
2:54 AM 34.0 °F 28.8 °F 23.0 °F 64% 30.11 in 10.0 mi WSW 5.8 mph - N/A   Clear
3:54 AM 32.0 °F 25.6 °F 24.1 °F 73% 30.12 in 10.0 mi SW 6.9 mph - N/A   Mostly Cloudy
4:54 AM 33.1 °F 26.9 °F 25.0 °F 72% 30.11 in 10.0 mi SW 6.9 mph - N/A   Overcast
5:54 AM 34.0 °F 28.8 °F 24.1 °F 67% 30.10 in 10.0 mi SW 5.8 mph - N/A   Partly Cloudy
6:54 AM 34.0 °F 27.2 °F 25.0 °F 70% 30.10 in 10.0 mi SSW 8.1 mph - N/A   Clear
7:54 AM 35.1 °F 29.3 °F 27.0 °F 72% 30.08 in 10.0 mi SSW 6.9 mph - N/A   Clear
8:54 AM 36.0 °F 28.5 °F 27.0 °F 70% 30.07 in 10.0 mi SSW 10.4 mph - N/A   Clear
9:54 AM 37.0 °F 30.4 °F 28.0 °F 70% 30.07 in 10.0 mi SSW 9.2 mph - N/A   Clear
10:54 AM 43.0 °F 37.2 °F 28.9 °F 58% 30.01 in 10.0 mi SW 10.4 mph - N/A   Clear
11:54 AM 45.0 °F 40.1 °F 30.0 °F 56% 29.96 in 10.0 mi SSW 9.2 mph - N/A   Clear
12:54 PM 48.0 °F - 28.9 °F 48% 29.95 in 10.0 mi SSW 13.8 mph - N/A   Clear
1:54 PM 46.9 °F - 28.9 °F 50% 29.94 in 10.0 mi SW 11.5 mph - N/A   Mostly Cloudy
2:54 PM 46.9 °F - 30.0 °F 52% 29.93 in 10.0 mi SSW 9.2 mph - N/A   Mostly Cloudy
3:54 PM 46.0 °F 41.4 °F 30.0 °F 54% 29.93 in 10.0 mi SW 9.2 mph - N/A   Overcast
4:54 PM 46.9 °F - 30.0 °F 52% 29.93 in 10.0 mi WSW 17.3 mph - N/A   Partly Cloudy
5:54 PM 46.0 °F 38.8 °F 30.0 °F 54% 29.94 in 10.0 mi SW 18.4 mph 24.2 mph N/A   Scattered Clouds
6:54 PM 45.0 °F 38.2 °F 30.0 °F 56% 29.95 in 10.0 mi WSW 15.0 mph - N/A   Clear
7:54 PM 44.1 °F 36.8 °F 28.9 °F 55% 29.95 in 10.0 mi WSW 16.1 mph - N/A   Clear
8:54 PM 42.1 °F 36.1 °F 28.9 °F 60% 29.96 in 10.0 mi SW 10.4 mph - N/A   Clear
9:54 PM 42.1 °F 34.5 °F 28.9 °F 60% 29.95 in 10.0 mi SW 15.0 mph - N/A   Mostly Cloudy
10:54 PM 42.1 °F 34.5 °F 28.9 °F 60% 29.95 in 10.0 mi SW 15.0 mph - N/A   Overcast
11:54 PM 42.1 °F 34.5 °F 28.9 °F 60% 29.94 in 10.0 mi WSW 15.0 mph - N/A   Overcast